Terug naar catalogus

Luca

ActiefAmateurradioSSO
NORAD 67287·PAYLOAD·🇲🇪 ME

Gelanceerd Dec 28, 2025 vanaf Vostochny Cosmodrome

Loading…

Volgende Passages (komende 24 uur)

TLE

VersSource: Space-Track

Epoch: Sep 13, 2026, 03:53 UTC

1 67287U 25313AR  26256.16233079  .00006244  00000-0  24651-3 0  9993
2 67287  97.3867 330.0476 0010366  53.3529 306.8661 15.25837279 39380

Volg Luca in realtime met AllMySat

Download on the App Store